STARLINK-3095 (49160 NORAD) Tracking and Keplerian Element Data

This shows tracking and keplerian element data for the satellite.

Feedback or suggestion? Click here.




ElementValue
Catalog49160
NameSTARLINK-3095
Epoch Orbit605
Epoch Day288.16667824
Epoch Year2021
RAAN39.5705
Inclination70.0004
Eccentricity0.0003757
Argument of Perigee283.8856
Mean Anonmoly170.218
Mean Motion15.6973212
Decay Rate0.00052547
L11 49160U 21082AG 21288.16667824 .00052547 00000-0 43948-3 0 9998
L22 49160 70.0004 39.5705 0003757 283.8856 170.2180 15.69732120 6050

Live tracking and technical data element details for STARLINK-3095 (NORAD 49160). STARLINK-3095 can be tracked NOW for your location showing map with azimuth and elevation plus other details from your city location.

Track the satellite on the map from your city or location and see movement details for azimuth, elevation, latitude, longitude, range, height, and movement on the map or in text.







IsCatalogInMostPopularTable: catalog: 49160, numindb: 10
Update: records affected: 1



GetName: 49160 STARLINK-3095

Hit Count: updated at: Sun, 17 Oct 2021 08:42:29 GMT